This is the latest recevied weather packets stored in our database for station/object KR4CWL-13. If no packets are shown the sender has not sent any weather packets the latest 10 day(s).
| Time | Temp. | Humidity | Pressure | Rain* | Wind** | Luminosity | Snow |
|---|---|---|---|---|---|---|---|
| 1777838043 | 18.33° C | 30% | 1009.8 hPa | 0 mm | - | - | - |
| 1777837443 | 18.33° C | 29% | 1009.8 hPa | 0 mm | - | - | - |
| 1777836843 | 18.33° C | 31% | 1010.2 hPa | 0 mm | - | - | - |
| 1777836243 | 18.33° C | 31% | 1010.2 hPa | 0 mm | - | - | - |
| 1777835643 | 18.33° C | 31% | 1010.2 hPa | 0 mm | - | - | - |
| 1777835043 | 18.89° C | 30% | 1010.2 hPa | 0 mm | - | - | - |
| 1777834443 | 18.33° C | 34% | 1010.5 hPa | 0 mm | - | - | - |
| 1777833843 | 18.33° C | 34% | 1010.5 hPa | 0 mm | - | - | - |
| 1777833243 | 18.33° C | 34% | 1010.8 hPa | 0 mm | - | - | - |
| 1777832642 | 18.33° C | 32% | 1010.8 hPa | 0 mm | - | - | - |
| 1777832043 | 18.89° C | 33% | 1010.8 hPa | 0 mm | - | - | - |
| 1777831442 | 17.78° C | 32% | 1010.8 hPa | 0 mm | - | - | - |
| 1777830842 | 18.33° C | 33% | 1011.2 hPa | 0 mm | - | - | - |
| 1777830242 | 18.33° C | 33% | 1011.2 hPa | 0 mm | - | - | - |
| 1777829642 | 18.89° C | 31% | 1011.2 hPa | 0 mm | - | - | - |
| 1777829042 | 18.33° C | 32% | 1011.5 hPa | 0 mm | - | - | - |
| 1777828442 | 18.89° C | 32% | 1011.5 hPa | 0 mm | - | - | - |
| 1777827842 | 18.33° C | 31% | 1011.8 hPa | 0 mm | - | - | - |
| 1777827242 | 19.44° C | 30% | 1011.8 hPa | 0 mm | - | - | - |
| 1777826642 | 18.89° C | 29% | 1011.8 hPa | 0 mm | - | - | - |
| 1777826042 | 18.89° C | 32% | 1012.2 hPa | 0 mm | - | - | - |
| 1777825442 | 18.89° C | 31% | 1012.2 hPa | 0 mm | - | - | - |
| 1777824842 | 18.89° C | 32% | 1012.2 hPa | 0 mm | - | - | - |
| 1777824242 | 18.33° C | 37% | 1012.5 hPa | 0 mm | - | - | - |
| 1777823642 | 17.78° C | 36% | 1012.5 hPa | 0 mm | - | - | - |
* Rain since midnight (hover to see other rain measurements)
** Current wind speed in m/s (hover to see current wind gust speed)